Location: Overspoor
(51.4747°N, 5.6641°E)
Time: 13:58:50
(UTC+02:00)

RS-15 - Pass Details

Date: 30 June 2022
Orbit: 1881 x 2163 km, 64.8° (Epoch: 13 August)

Event Time Altitude Azimuth Distance (km) Brightness Sun altitude
Rises 04:31:42 0° 316° (NW) 5,696 10.6 -6.5°
Reaches altitude 10° 04:38:55 10° 289° (WNW) 4,658 9.8 -5.8°
Maximum altitude 04:42:10 11° 273° (W) 4,512 9.6 -5.4°
Drops below altitude 10° 04:45:25 10° 256° (WSW) 4,609 9.5 -5.1°
Enters shadow 04:50:16 - 235° (SW) 5,163 9.6 -4.6°
